GW2791 Weather Reports


time (UTC)temp
C
wind
direction
speed
KPH
gust
KPH
rain 1hr
cm
rain 24hr
cm
rain mn
cm
humidity
%
barometer
mb
20260510081803 6 259 0.0 0.0 0.00 0.00 0.00 99 1011.8
20260510081259 6 300 0.0 0.0 0.00 0.00 0.00 99 1011.5
20260510080754 6 236 3.2 3.2 0.00 0.00 0.00 99 1011.6
20260510080250 6 207 0.0 1.6 0.00 0.00 0.00 99 1011.3
20260510075747 6 279 0.0 0.0 0.00 0.00 0.00 99 1011.2
20260510075245 6 291 0.0 0.0 0.00 0.00 0.00 99 1011.4
20260510074741 6 158 1.6 1.6 0.00 0.00 0.00 99 1011.3
20260510074238 6 281 0.0 0.0 0.00 0.00 0.00 99 1011.3
20260510073734 6 206 0.0 1.6 0.00 0.00 0.00 99 1011.3
20260510073230 6 270 0.0 0.0 0.00 0.00 0.00 99 1011.1
20260510072726 6 241 1.6 1.6 0.00 0.00 0.00 99 1011.3
20260510072223 7 55 1.6 3.2 0.00 0.00 0.00 99 1011.2
20260510071719 7 209 1.6 1.6 0.00 0.00 0.00 99 1011.2
20260510071216 6 1 0.0 0.0 0.00 0.00 0.00 99 1011.2
20260510070714 7 254 0.0 0.0 0.00 0.00 0.00 99 1011.3
20260510070211 7 351 0.0 0.0 0.00 0.00 0.00 99 1011.3
20260510065706 7 281 0.0 0.0 0.00 0.00 0.00 99 1011.1
20260510065203 7 238 0.0 0.0 0.00 0.00 0.00 99 1011.0
20260510064659 7 277 0.0 0.0 0.00 0.00 0.00 99 1011.0
20260510064157 7 226 0.0 0.0 0.00 0.00 0.00 99 1011.1
20260510063654 7 185 1.6 1.6 0.00 0.00 0.00 99 1010.9
20260510063150 7 301 0.0 0.0 0.00 0.00 0.00 99 1011.2
20260510062646 8 293 0.0 0.0 0.00 0.00 0.00 99 1011.1
20260510062142 7 214 0.0 1.6 0.00 0.00 0.00 99 1011.3
20260510061637 8 354 1.6 1.6 0.00 0.00 0.00 99 1011.1
20260510061135 7 227 3.2 3.2 0.00 0.00 0.00 99 1011.0
20260510060631 8 259 0.0 0.0 0.00 0.00 0.00 99 1011.1
20260510060128 8 236 0.0 0.0 0.00 0.00 0.00 99 1011.0
20260510055624 8 274 0.0 0.0 0.00 0.00 0.00 99 1011.2
20260510055123 8 205 1.6 1.6 0.00 0.00 0.00 99 1011.1
20260510054618 8 252 0.0 0.0 0.00 0.00 0.00 99 1011.1
20260510054113 8 243 0.0 0.0 0.00 0.00 0.00 99 1011.0
20260510053613 8 128 4.8 4.8 0.00 0.00 0.00 99 1010.8
20260510053110 8 213 0.0 0.0 0.00 0.00 0.00 99 1010.8
20260510052605 8 271 0.0 0.0 0.00 0.00 0.00 99 1010.8
20260510052102 8 263 0.0 0.0 0.00 0.00 0.00 99 1010.9
20260510051557 8 261 0.0 0.0 0.00 0.00 0.00 99 1010.8
20260510051054 8 208 0.0 1.6 0.00 0.00 0.00 99 1010.9
20260510050551 8 206 0.0 0.0 0.00 0.00 0.00 99 1011.0
20260510050048 8 299 0.0 0.0 0.00 0.00 0.00 99 1010.8
20260510045540 9 41 1.6 1.6 0.00 0.00 0.00 99 1011.0
20260510045036 8 233 0.0 0.0 0.00 0.00 0.00 99 1011.0
20260510044533 10 292 0.0 0.0 0.00 0.00 0.00 99 1011.2
20260510044031 10 243 0.0 1.6 0.00 0.00 0.00 99 1010.9
20260510043526 9 171 1.6 1.6 0.00 0.00 0.00 99 1011.1
20260510043021 10 202 0.0 0.0 0.00 0.00 0.00 99 1010.9
20260510042515 10 62 1.6 1.6 0.00 0.00 0.00 99 1011.0
20260510042010 10 216 0.0 0.0 0.00 0.00 0.00 99 1011.0
20260510041508 9 52 1.6 3.2 0.00 0.00 0.00 99 1011.2
20260510041006 10 251 0.0 0.0 0.00 0.00 0.00 99 1011.2
20260510040502 10 341 0.0 0.0 0.00 0.00 0.00 99 1011.1
20260510035957 10 234 0.0 0.0 0.00 0.00 0.00 99 1011.4
20260510035455 9 188 0.0 0.0 0.00 0.00 0.00 99 1011.5
20260510034954 10 144 4.8 4.8 0.00 0.00 0.00 99 1011.3
20260510034453 10 292 0.0 1.6 0.00 0.00 0.00 99 1011.3
20260510033949 10 285 0.0 0.0 0.00 0.00 0.00 99 1011.1
20260510033445 10 79 0.0 0.0 0.00 0.00 0.00 99 1011.3
20260510032942 10 308 0.0 0.0 0.00 0.00 0.00 99 1011.1
20260510032439 10 238 0.0 0.0 0.00 0.00 0.00 99 1011.2
20260510031939 10 331 0.0 0.0 0.00 0.00 0.00 99 1011.1
20260510031435 10 185 0.0 1.6 0.00 0.00 0.00 99 1011.2
20260510030931 10 149 1.6 3.2 0.00 0.00 0.00 99 1011.0
20260510030426 11 152 1.6 1.6 0.00 0.00 0.00 99 1010.9
20260510025924 11 264 0.0 0.0 0.00 0.00 0.00 99 1010.9
20260510025421 11 171 0.0 0.0 0.00 0.00 0.00 99 1010.8
20260510024919 11 266 0.0 0.0 0.00 0.00 0.00 99 1010.8
20260510024415 11 327 0.0 0.0 0.00 0.00 0.00 99 1010.8
20260510023911 11 317 0.0 0.0 0.00 0.00 0.00 99 1010.7
20260510023407 11 270 0.0 0.0 0.00 0.00 0.00 99 1010.6
20260510022905 11 234 0.0 0.0 0.00 0.00 0.00 99 1010.7
20260510022404 11 204 0.0 0.0 0.00 0.00 0.00 99 1010.5
20260510021903 12 313 0.0 0.0 0.00 0.00 0.00 99 1010.6
20260510021401 12 160 0.0 0.0 0.00 0.00 0.00 99 1010.5
20260510020857 12 269 0.0 0.0 0.00 0.00 0.00 99 1010.2
20260510020352 12 238 0.0 0.0 0.00 0.00 0.00 99 1010.1
20260510015848 12 246 0.0 0.0 0.00 0.00 0.00 98 1010.2
20260510015344 12 251 0.0 0.0 0.00 0.00 0.00 97 1009.9
20260510014840 12 253 0.0 0.0 0.00 0.00 0.00 97 1009.8
20260510014337 12 239 0.0 0.0 0.00 0.00 0.00 97 1009.9
20260510013833 12 286 0.0 0.0 0.00 0.00 0.00 97 1009.9
20260510013329 13 241 0.0 0.0 0.00 0.00 0.00 96 1009.8
20260510012824 13 278 0.0 0.0 0.00 0.00 0.00 96 1009.6
20260510012324 13 277 0.0 0.0 0.00 0.00 0.00 95 1009.6
20260510011819 13 281 0.0 0.0 0.00 0.00 0.00 94 1009.7
20260510011314 13 253 0.0 0.0 0.00 0.00 0.00 94 1009.5
20260510010811 13 264 0.0 0.0 0.00 0.00 0.00 93 1009.3
20260510010308 14 274 0.0 0.0 0.00 0.00 0.00 92 1009.3
20260510005805 14 246 0.0 0.0 0.00 0.00 0.00 93 1009.6
20260510005301 15 322 0.0 0.0 0.00 0.00 0.00 92 1009.2
20260510004759 15 276 0.0 0.0 0.00 0.00 0.00 90 1008.7
20260510004256 15 265 0.0 0.0 0.00 0.00 0.00 89 1008.9
20260510003754 15 252 0.0 0.0 0.00 0.00 0.00 88 1008.8
20260510003250 16 281 0.0 0.0 0.00 0.00 0.00 87 1008.8
20260510002749 16 294 0.0 0.0 0.00 0.00 0.00 86 1008.7
20260510002247 16 247 0.0 0.0 0.00 0.00 0.00 85 1008.9
20260510001743 16 319 0.0 0.0 0.00 0.00 0.00 83 1008.5
20260510001242 17 332 0.0 0.0 0.00 0.00 0.00 82 1008.4
20260510000737 17 21 1.6 1.6 0.00 0.00 0.00 82 1008.2
20260510000235 17 341 0.0 0.0 0.00 0.00 0.00 80 1008.2
20260509235731 18 309 0.0 0.0 0.00 0.00 0.00 78 1008.3
20260509235228 18 328 0.0 0.0 0.00 0.00 0.00 76 1008.4
20260509234724 20 287 0.0 0.0 0.00 0.00 0.00 71 1008.2
20260509234221 21 262 0.0 0.0 0.00 0.00 0.00 64 1008.1
20260509233719 21 229 0.0 1.6 0.00 0.00 0.00 62 1008.0
20260509233217 22 227 0.0 1.6 0.00 0.00 0.00 60 1008.2
20260509232713 22 227 1.6 1.6 0.00 0.00 0.00 60 1008.3
20260509232210 22 214 3.2 3.2 0.00 0.00 0.00 59 1008.1
20260509231706 22 223 1.6 1.6 0.00 0.00 0.00 59 1008.1
20260509231204 23 214 4.8 8.0 0.00 0.00 0.00 57 1008.3
20260509230701 23 230 4.8 4.8 0.00 0.00 0.00 58 1008.2
20260509230157 23 214 4.8 4.8 0.00 0.00 0.00 57 1008.1
20260509225653 23 238 4.8 8.0 0.00 0.00 0.00 57 1008.2
20260509225149 23 241 6.4 9.7 0.00 0.00 0.00 58 1008.3
20260509224645 23 183 4.8 4.8 0.00 0.00 0.00 58 1007.9
20260509224142 23 231 4.8 4.8 0.00 0.00 0.00 57 1008.0
20260509223638 23 291 3.2 4.8 0.00 0.00 0.00 57 1008.4
20260509223136 23 215 4.8 4.8 0.00 0.00 0.00 57 1008.2
20260509222633 23 294 3.2 8.0 0.00 0.00 0.00 56 1008.4
20260509222127 23 208 3.2 3.2 0.00 0.00 0.00 56 1008.1
20260509221624 23 250 4.8 4.8 0.00 0.00 0.00 56 1008.0
20260509221120 23 234 4.8 4.8 0.00 0.00 0.00 56 1008.2
20260509220616 23 287 3.2 4.8 0.00 0.00 0.00 55 1008.0
20260509220113 23 226 8.0 11.3 0.00 0.00 0.00 56 1008.1
20260509215609 23 245 6.4 9.7 0.00 0.00 0.00 57 1008.2
20260509215106 22 237 8.0 11.3 0.00 0.00 0.00 57 1008.3
20260509214602 23 221 6.4 9.7 0.00 0.00 0.00 57 1008.5
20260509214059 23 247 8.0 9.7 0.00 0.00 0.00 56 1008.1
20260509213555 23 230 9.7 12.9 0.00 0.00 0.00 56 1008.2
20260509213052 23 218 9.7 11.3 0.00 0.00 0.00 56 1007.9
20260509212549 23 217 8.0 9.7 0.00 0.00 0.00 54 1008.1
20260509212046 24 235 4.8 8.0 0.00 0.00 0.00 53 1008.0
20260509211542 23 297 3.2 4.8 0.00 0.00 0.00 55 1007.8
20260509211039 23 259 3.2 4.8 0.00 0.00 0.00 57 1008.0
20260509210536 23 236 6.4 11.3 0.00 0.00 0.00 57 1007.9
20260509210032 23 204 4.8 9.7 0.00 0.00 0.00 56 1008.0
20260509205526 24 193 6.4 8.0 0.00 0.00 0.00 54 1007.7
20260509205022 23 298 6.4 9.7 0.00 0.00 0.00 55 1007.8
20260509204518 24 250 1.6 1.6 0.00 0.00 0.00 53 1007.6
20260509204015 25 182 6.4 8.0 0.00 0.00 0.00 52 1007.7
20260509203511 23 200 3.2 3.2 0.00 0.00 0.00 55 1007.6
20260509203009 23 234 6.4 9.7 0.00 0.00 0.00 53 1007.7
20260509202503 25 184 0.0 1.6 0.00 0.00 0.00 53 1007.6
20260509201959 24 217 12.9 16.1 0.00 0.00 0.00 55 1007.5
20260509201454 25 200 4.8 4.8 0.00 0.00 0.00 50 1007.3
20260509200952 23 243 9.7 12.9 0.00 0.00 0.00 52 1007.8
20260509200446 25 233 11.3 12.9 0.00 0.00 0.00 49 1007.5
20260509195943 24 248 4.8 8.0 0.00 0.00 0.00 52 1007.8
20260509195433 24 228 9.7 11.3 0.00 0.00 0.00 49 1007.6
20260509194933 23 195 9.7 11.3 0.00 0.00 0.00 50 1007.8
20260509194428 23 251 12.9 22.5 0.00 0.00 0.00 50 1007.8
20260509193926 25 249 3.2 3.2 0.00 0.00 0.00 49 1008.0
20260509193425 25 241 16.1 17.7 0.00 0.00 0.00 50 1008.1
20260509192922 24 244 1.6 1.6 0.00 0.00 0.00 50 1008.1
20260509192418 25 217 9.7 12.9 0.00 0.00 0.00 49 1008.2
20260509191913 24 246 11.3 16.1 0.00 0.00 0.00 51 1008.4
20260509191409 23 262 8.0 12.9 0.00 0.00 0.00 49 1008.3
20260509190905 23 183 6.4 9.7 0.00 0.00 0.00 52 1008.2
20260509190403 23 273 6.4 8.0 0.00 0.00 0.00 53 1008.4
20260509185900 24 233 19.3 25.7 0.00 0.00 0.00 51 1008.3
20260509185356 25 242 4.8 8.0 0.00 0.00 0.00 51 1008.6
20260509184853 23 174 3.2 4.8 0.00 0.00 0.00 56 1008.4
20260509184350 22 221 4.8 8.0 0.00 0.00 0.00 57 1008.9
20260509183847 22 123 3.2 3.2 0.00 0.00 0.00 56 1008.7
20260509183342 23 237 6.4 9.7 0.00 0.00 0.00 56 1008.5
20260509182838 22 107 4.8 9.7 0.00 0.00 0.00 55 1008.8
20260509182336 23 294 1.6 1.6 0.00 0.00 0.00 56 1008.8
20260509181833 22 233 9.7 12.9 0.00 0.00 0.00 55 1008.9
20260509181330 22 261 4.8 9.7 0.00 0.00 0.00 55 1008.9
20260509180827 23 201 11.3 14.5 0.00 0.00 0.00 54 1009.2
20260509180323 23 292 1.6 3.2 0.00 0.00 0.00 54 1009.2
20260509175820 23 216 4.8 4.8 0.00 0.00 0.00 51 1009.3
20260509175316 23 171 8.0 11.3 0.00 0.00 0.00 56 1009.5
20260509174812 22 226 8.0 14.5 0.00 0.00 0.00 59 1009.4
20260509174308 22 246 4.8 9.7 0.00 0.00 0.00 58 1009.2
20260509173804 22 136 4.8 8.0 0.00 0.00 0.00 60 1009.4
20260509173300 22 93 3.2 3.2 0.00 0.00 0.00 61 1009.7
20260509172756 22 217 11.3 16.1 0.00 0.00 0.00 59 1009.7
20260509172253 22 224 11.3 14.5 0.00 0.00 0.00 60 1009.8
20260509171748 22 89 4.8 8.0 0.00 0.00 0.00 60 1009.9
20260509171245 22 238 3.2 4.8 0.00 0.00 0.00 59 1010.0
20260509170741 21 172 11.3 17.7 0.00 0.00 0.00 62 1010.0
20260509170237 21 169 8.0 9.7 0.00 0.00 0.00 62 1010.1
20260509165736 20 187 11.3 14.5 0.00 0.00 0.00 64 1010.3
20260509165231 21 200 4.8 4.8 0.00 0.00 0.00 64 1009.8
20260509164728 21 221 6.4 9.7 0.00 0.00 0.00 61 1009.8
20260509164224 20 240 9.7 12.9 0.00 0.00 0.00 63 1009.8
20260509163721 19 235 14.5 20.9 0.00 0.00 0.00 65 1010.1
20260509163217 20 173 6.4 8.0 0.00 0.00 0.00 65 1010.0
20260509162715 21 289 8.0 12.9 0.00 0.00 0.00 62 1010.3
20260509162210 20 271 4.8 4.8 0.00 0.00 0.00 63 1010.0
20260509161706 20 334 4.8 9.7 0.00 0.00 0.00 64 1010.0
20260509161202 20 163 8.0 11.3 0.00 0.00 0.00 64 1010.0
20260509160657 21 213 11.3 14.5 0.00 0.00 0.00 62 1009.8
20260509160153 20 245 6.4 9.7 0.00 0.00 0.00 63 1010.1
20260509155650 20 217 4.8 9.7 0.00 0.00 0.00 63 1010.0
20260509155146 20 201 6.4 9.7 0.00 0.00 0.00 63 1010.0
20260509154642 20 211 11.3 12.9 0.00 0.00 0.00 64 1009.9
20260509154139 19 204 8.0 11.3 0.00 0.00 0.00 65 1010.1
20260509153636 20 107 9.7 12.9 0.00 0.00 0.00 63 1010.3
20260509153132 20 235 3.2 4.8 0.00 0.00 0.00 62 1010.2
20260509152628 20 204 9.7 12.9 0.00 0.00 0.00 64 1010.1
20260509152126 20 228 8.0 9.7 0.00 0.00 0.00 65 1010.1
20260509151622 18 118 3.2 4.8 0.00 0.00 0.00 66 1010.2
20260509151120 18 166 4.8 8.0 0.00 0.00 0.00 65 1010.5
20260509150618 18 264 4.8 4.8 0.00 0.00 0.00 66 1010.4
20260509150116 19 228 6.4 8.0 0.00 0.00 0.00 65 1010.5
20260509145611 18 299 1.6 3.2 0.00 0.00 0.00 65 1010.6
20260509145107 18 242 4.8 4.8 0.00 0.00 0.00 64 1010.5
20260509144604 18 250 4.8 8.0 0.00 0.00 0.00 65 1010.5
20260509144101 18 176 8.0 9.7 0.00 0.00 0.00 64 1010.6
20260509143558 18 237 9.7 12.9 0.00 0.00 0.00 65 1010.4
20260509143055 18 216 4.8 4.8 0.00 0.00 0.00 64 1010.3
20260509142550 18 270 3.2 4.8 0.00 0.00 0.00 65 1010.3
20260509142047 18 286 3.2 3.2 0.00 0.00 0.00 65 1010.4
20260509141543 16 228 4.8 4.8 0.00 0.00 0.00 68 1010.6
20260509141040 16 237 4.8 8.0 0.00 0.00 0.00 68 1010.7
20260509140537 16 228 4.8 8.0 0.00 0.00 0.00 69 1010.7
20260509140035 16 235 8.0 9.7 0.00 0.00 0.00 68 1010.7
20260509135532 16 293 1.6 3.2 0.00 0.00 0.00 68 1011.1
20260509135030 16 247 6.4 9.7 0.00 0.00 0.00 68 1011.0
20260509134526 15 325 1.6 3.2 0.00 0.00 0.00 69 1010.9
20260509134024 15 292 4.8 4.8 0.00 0.00 0.00 68 1010.8
20260509133520 15 209 6.4 9.7 0.00 0.00 0.00 68 1011.0
20260509133018 15 230 8.0 9.7 0.00 0.00 0.00 68 1010.7
20260509132516 15 311 1.6 3.2 0.00 0.00 0.00 67 1010.7
20260509132014 15 267 1.6 1.6 0.00 0.00 0.00 69 1011.1
20260509131510 15 263 0.0 1.6 0.00 0.00 0.00 69 1011.0
20260509131007 15 256 3.2 4.8 0.00 0.00 0.00 69 1011.2
20260509130502 14 325 1.6 3.2 0.00 0.00 0.00 70 1011.1
20260509125959 14 251 4.8 4.8 0.00 0.00 0.00 69 1011.3
20260509125456 14 298 3.2 3.2 0.00 0.00 0.00 70 1011.3
20260509124951 14 238 3.2 3.2 0.00 0.00 0.00 70 1011.3
20260509124449 14 273 3.2 4.8 0.00 0.00 0.00 69 1011.3
20260509123946 14 234 1.6 3.2 0.00 0.00 0.00 72 1011.4
20260509123444 14 249 3.2 4.8 0.00 0.00 0.00 71 1011.4
20260509122939 14 242 3.2 3.2 0.00 0.00 0.00 71 1011.3
20260509122437 13 260 1.6 1.6 0.00 0.00 0.00 71 1011.3
20260509121933 13 245 1.6 1.6 0.00 0.00 0.00 73 1011.3
20260509121430 13 235 3.2 3.2 0.00 0.00 0.00 73 1011.3
20260509120928 13 190 3.2 4.8 0.00 0.00 0.00 73 1011.4
20260509120426 13 327 1.6 3.2 0.00 0.00 0.00 74 1011.6
20260509115924 12 231 4.8 4.8 0.00 0.00 0.00 72 1011.5
20260509115421 12 334 4.8 4.8 0.00 0.00 0.00 73 1011.5
20260509114918 12 267 3.2 4.8 0.00 0.00 0.00 75 1011.5
20260509114417 12 272 0.0 1.6 0.00 0.00 0.00 78 1011.5
20260509113916 12 278 0.0 1.6 0.00 0.00 0.00 77 1011.3
20260509113413 11 286 1.6 3.2 0.00 0.00 0.00 77 1011.3
20260509112909 11 271 0.0 0.0 0.00 0.00 0.00 81 1011.2
20260509112407 11 256 0.0 0.0 0.00 0.00 0.00 81 1011.3
20260509111904 11 267 0.0 0.0 0.00 0.00 0.00 79 1011.3
20260509111400 11 243 0.0 1.6 0.00 0.00 0.00 78 1011.2
20260509110858 11 233 0.0 0.0 0.00 0.00 0.00 79 1011.2
20260509110354 10 231 1.6 3.2 0.00 0.00 0.00 79 1011.0
20260509105852 10 219 1.6 1.6 0.00 0.00 0.00 83 1011.1
20260509105350 10 235 0.0 0.0 0.00 0.00 0.00 80 1011.1
20260509104847 10 265 0.0 0.0 0.00 0.00 0.00 84 1011.0
20260509104343 10 238 0.0 0.0 0.00 0.00 0.00 82 1010.9
20260509103841 10 251 0.0 0.0 0.00 0.00 0.00 80 1011.2
20260509103338 10 145 1.6 3.2 0.00 0.00 0.00 80 1011.0
20260509102837 10 219 0.0 0.0 0.00 0.00 0.00 81 1010.9
20260509102334 10 255 0.0 1.6 0.00 0.00 0.00 84 1011.1
20260509101830 10 273 0.0 0.0 0.00 0.00 0.00 83 1011.1
20260509101326 10 239 0.0 0.0 0.00 0.00 0.00 81 1010.9
20260509100824 10 261 0.0 0.0 0.00 0.00 0.00 82 1011.0
20260509100321 10 256 0.0 0.0 0.00 0.00 0.00 83 1011.0
20260509095817 10 259 0.0 0.0 0.00 0.00 0.00 83 1011.1
20260509095315 10 239 0.0 0.0 0.00 0.00 0.00 81 1010.9
20260509094812 10 248 0.0 0.0 0.00 0.00 0.00 82 1010.9
20260509094308 11 237 0.0 0.0 0.00 0.00 0.00 79 1010.9
20260509093806 11 242 1.6 3.2 0.00 0.00 0.00 77 1010.8
20260509093303 10 232 0.0 0.0 0.00 0.00 0.00 80 1010.9
20260509092802 10 240 0.0 1.6 0.00 0.00 0.00 80 1010.7
20260509092259 10 291 0.0 0.0 0.00 0.00 0.00 82 1011.1
20260509091757 10 259 0.0 1.6 0.00 0.00 0.00 84 1010.9
20260509091253 10 293 0.0 0.0 0.00 0.00 0.00 85 1011.1
20260509090751 10 300 0.0 0.0 0.00 0.00 0.00 85 1011.1
20260509090247 10 242 0.0 0.0 0.00 0.00 0.00 85 1011.0
20260509085745 9 253 0.0 0.0 0.00 0.00 0.00 84 1011.3
20260509085243 9 257 0.0 0.0 0.00 0.00 0.00 86 1011.2
20260509084739 9 215 0.0 0.0 0.00 0.00 0.00 85 1011.3
20260509084235 8 178 0.0 0.0 0.00 0.00 0.00 85 1011.1
20260509083734 8 177 0.0 0.0 0.00 0.00 0.00 85 1011.3
20260509083230 8 197 0.0 1.6 0.00 0.00 0.00 84 1011.2
20260509082727 8 270 0.0 0.0 0.00 0.00 0.00 84 1011.4
20260509082224 8 270 0.0 0.0 0.00 0.00 0.00 83 1011.4